Location: Newark
(39.5667°N, 8.9833°E)
Time: 20:58:26
(UTC+00:00)

Vanguard 2 - All Passes

Search period start: 15 October 2019 00:00
Search period end: 25 October 2019 00:00
Orbit: 554 x 2937 km, 32.9° (Epoch: 15 October)

Date Brightness Start Highest point End Pass type
(mag) Time Alt. Az. Time Alt. Az. Time Alt. Az.
15 Oct - 01:40:08 10° W 01:54:07 30° SW 02:06:34 10° SSE visible
15 Oct - 17:19:06 10° SSW 17:27:27 34° SE 17:39:49 10° E visible
15 Oct - 19:25:38 10° WSW 19:37:07 62° SSE 19:53:56 10° E visible
15 Oct - 21:34:36 10° W 21:48:57 67° S 22:06:43 10° ESE visible
15 Oct - 23:45:19 10° W 00:01:04 49° SSW 00:16:59 10° SE visible
16 Oct - 01:59:25 10° W 02:11:33 23° SW 02:22:35 10° S visible
16 Oct - 15:34:27 10° SSE 15:37:27 12° SE 15:40:55 10° ESE daylight
16 Oct - 17:36:14 10° SW 17:44:58 42° SSE 17:58:21 10° E visible
16 Oct - 19:43:24 10° WSW 19:55:05 66° S 20:12:10 10° E visible
16 Oct - 21:52:37 10° W 22:07:02 64° SSW 22:24:39 10° ESE visible
17 Oct - 00:03:40 10° W 00:18:51 42° SSW 00:34:08 10° SSE visible
17 Oct - 02:19:38 10° W 02:28:56 17° SW 02:37:36 10° SSW visible
17 Oct - 15:49:26 10° S 15:54:38 18° SE 16:01:25 10° E daylight
17 Oct - 17:53:36 10° SW 18:02:35 49° SSE 18:16:45 10° E visible
17 Oct - 20:01:16 10° WSW 20:13:08 67° S 20:30:21 10° E visible
17 Oct - 22:10:40 10° W 22:25:04 59° SSW 22:42:24 10° SE visible
18 Oct - 00:22:12 10° W 00:36:33 35° SW 00:50:58 10° SSE visible
18 Oct - 02:43:02 10° WSW 02:46:17 11° SW 02:49:29 10° SW visible
18 Oct - 16:05:45 10° S 16:11:54 24° SE 16:20:38 10° E daylight
18 Oct - 18:11:09 10° SW 18:20:21 55° SSE 18:35:03 10° E visible
18 Oct - 20:19:10 10° W 20:31:11 67° S 20:48:28 10° ESE visible
18 Oct - 22:28:47 10° W 22:43:03 53° SSW 22:59:59 10° SE visible
19 Oct - 00:41:04 10° W 00:54:10 28° SW 01:07:19 10° SSE visible
19 Oct - 16:22:37 10° SSW 16:29:17 32° SE 16:39:22 10° E daylight
19 Oct - 18:28:50 10° WSW 18:38:14 60° SSE 18:53:19 10° E visible
19 Oct - 20:37:07 10° W 20:49:16 64° S 21:06:31 10° ESE visible
19 Oct - 22:46:59 10° W 23:00:57 46° SSW 23:17:19 10° SE visible
20 Oct - 01:00:31 10° W 01:11:44 21° SW 01:23:00 10° S visible
20 Oct - 16:39:48 10° SW 16:46:48 39° SSE 16:57:52 10° E daylight
20 Oct - 18:46:37 10° WSW 18:56:11 63° S 19:11:32 10° E visible
20 Oct - 20:55:06 10° W 21:07:19 60° SSW 21:24:24 10° ESE visible
20 Oct - 23:05:20 10° W 23:18:49 39° SSW 23:34:20 10° SSE visible
21 Oct - 01:21:12 10° WSW 01:29:17 15° SW 01:37:24 10° SSW night (unlit)
21 Oct - 14:53:19 10° SSE 14:56:57 15° SE 15:01:30 10° ESE daylight
21 Oct - 16:57:13 10° SW 17:04:26 46° SSE 17:16:13 10° E visible
21 Oct - 19:04:27 10° WSW 19:14:10 64° S 19:29:43 10° ESE visible
21 Oct - 21:13:07 10° W 21:25:20 54° SSW 21:42:07 10° SE visible
21 Oct - 23:23:57 10° W 23:36:36 31° SSW 23:50:57 10° SSE visible
22 Oct - 15:09:34 10° S 15:14:16 21° SE 15:20:44 10° E daylight
22 Oct - 17:14:48 10° WSW 17:22:12 53° SSE 17:34:29 10° E visible
22 Oct - 19:22:20 10° W 19:32:11 63° S 19:47:49 10° ESE visible
22 Oct - 21:31:14 10° W 21:43:19 48° SSW 21:59:36 10° SE visible
22 Oct - 23:42:58 10° W 23:54:21 25° SW 00:07:01 10° S night (unlit)
23 Oct - 15:26:29 10° SSW 15:31:42 28° SSE 15:39:26 10° E daylight
23 Oct - 17:32:30 10° WSW 17:40:03 57° SSE 17:52:43 10° E visible
23 Oct - 19:40:15 10° W 19:50:13 59° S 20:05:49 10° ESE visible
23 Oct - 21:49:27 10° W 22:01:16 41° SSW 22:16:49 10° SE visible
24 Oct - 00:02:45 10° WSW 00:12:04 18° SW 00:22:12 10° S night (unlit)
24 Oct - 15:43:43 10° SW 15:49:15 36° SSE 15:57:52 10° E daylight
24 Oct - 17:50:16 10° WSW 17:57:58 60° S 18:10:55 10° E visible
24 Oct - 19:58:13 10° W 20:08:14 54° SSW 20:23:39 10° ESE visible
24 Oct - 22:07:52 10° W 22:19:11 33° SSW 22:33:39 10° SSE visible
